Sand Island, Henderson Field, MQ

9:40 AM SST on March 26, 2017 (GMT -1100)
Henderson Field

Weather History for PMDY - December, 2013

Change the Weather History Date:

Tuesday, December 10, 2013

  Actual Average (PHBK) Record (PHBK)
Temperature  
Mean Temperature 70 °F -  
Max Temperature 73 °F 81 °F 86 °F (1969)
Min Temperature 68 °F 63 °F 58 °F (1950)
Cooling Degree Days 6    
Growing Degree Days 20 (Base 50)    
Moisture  
Dew Point 67 °F    
Average Humidity 89    
Maximum Humidity 100    
Minimum Humidity 59    
Precipitation  
Precipitation 1.79 in - - ()
Sea Level Pressure  
Sea Level Pressure 30.05 in    
Wind  
Wind Speed 26 mph (SSE)    
Max Wind Speed 39 mph    
Max Gust Speed 52 mph    
Visibility 2 miles    
Events Fog , Rain    
Averages and records for this station are not official NWS values.
T = Trace of Precipitation, MM = Missing Value Source: NWS Daily Summary

Daily Weather History Graph

Daily Weather History Graph

Search for Another Location

Airport or City:

Trip Planner

Search our weather history database for the weather conditions in past years. The results will help you decide how hot, cold, wet, or windy it might be!

Date:

Astronomy

Dec. 10, 2013 Rise Set
Actual Time 6:30 PM GMT 4:54 AM GMT
Civil Twilight 6:05 PM GMT 5:19 AM GMT
Nautical Twilight 5:35 PM GMT 5:49 AM GMT
Astronomical Twilight 5:07 PM GMT 6:17 AM GMT
Moon 12:01 AM GMT (12/10) 12:31 PM GMT (12/10)
Length of Visible Light 11h 14m
Length of Day
10h 23m
First Quarter, 59% of the Moon is Illuminated
Dec 10
First Quarter
Dec 17
Full
Dec 25
Last Quarter
Jan 1
New
Jan 8
First Quarter

Hourly Weather History & Observations

Time (GMT) Temp. Dew Point Humidity Pressure Visibility Wind Dir Wind Speed Gust Speed Precip Events Conditions
12:56 AM 68.9 °F 54.0 °F 59% 30.95 in 6.0 mi East 19.6 mph 26.5 mph N/A   Haze
1:56 AM 68.9 °F 55.9 °F 63% 30.91 in 5.0 mi East 24.2 mph 28.8 mph N/A   Haze
2:56 AM 69.8 °F 57.2 °F 64% 30.01 in 5.0 mi ESE 20.7 mph 27.6 mph N/A   Haze
3:56 AM 70.0 °F 54.9 °F 59% 30.93 in 5.0 mi SE 25.3 mph 34.5 mph N/A   Haze
4:56 AM 70.0 °F 57.9 °F 65% 30.91 in 4.0 mi ESE 27.6 mph 36.8 mph N/A   Haze
5:56 AM 69.8 °F 57.2 °F 64% 30.00 in 4.0 mi SE 25.3 mph 34.5 mph N/A   Haze
6:56 AM 70.0 °F 59.9 °F 70% 30.91 in 5.0 mi ESE 27.6 mph 36.8 mph 0.00 in Rain Light Rain
7:56 AM 70.9 °F 61.9 °F 73% 30.91 in 4.0 mi ESE 25.3 mph 32.2 mph 0.00 in Rain Light Rain
8:25 AM 71.6 °F 62.6 °F 73% 30.00 in 2.5 mi SE 27.6 mph 35.7 mph 0.00 in Rain Light Rain
8:35 AM 71.6 °F 64.4 °F 78% 29.99 in 2.5 mi ESE 26.5 mph 32.2 mph 0.02 in Rain Light Rain
8:56 AM 69.8 °F 64.4 °F 83% 29.98 in 2.5 mi SE 28.8 mph 35.7 mph N/A Rain Light Rain
9:12 AM 69.8 °F 64.4 °F 83% 29.97 in 1.8 mi SE 27.6 mph 36.8 mph 0.02 in Rain Light Rain
9:19 AM 69.8 °F 64.4 °F 83% 29.98 in 2.5 mi ESE 25.3 mph 35.7 mph 0.03 in Rain Light Rain
9:33 AM 69.8 °F 64.4 °F 83% 29.95 in 1.5 mi ESE 32.2 mph 39.1 mph 0.07 in Rain Rain
9:41 AM 69.8 °F 64.4 °F 83% 29.94 in 1.5 mi ESE 27.6 mph 40.3 mph 0.09 in Rain Rain
9:56 AM 68.9 °F 65.8 °F 90% 30.85 in 1.8 mi ESE 28.8 mph 38.0 mph 0.12 in Rain Light Rain
10:00 AM 69.8 °F 66.2 °F 88% 29.94 in 2.0 mi ESE 28.8 mph 36.8 mph 0.00 in Rain Light Rain
10:20 AM 69.8 °F 66.2 °F 88% 29.92 in 3.0 mi ESE 25.3 mph 35.7 mph 0.00 in Rain Light Rain
10:27 AM 69.8 °F 66.2 °F 88% 29.92 in 2.5 mi ESE 24.2 mph 33.4 mph 0.01 in Rain Light Rain
10:56 AM 68.9 °F 65.8 °F 90% 30.81 in 2.5 mi ESE 33.4 mph 40.3 mph 0.03 in Rain Light Rain
11:16 AM 69.8 °F 66.2 °F 88% 29.88 in 1.8 mi ESE 26.5 mph 38.0 mph 0.01 in Rain Light Rain
11:56 AM 69.8 °F 66.2 °F 88% 29.86 in 1.5 mi ESE 27.6 mph 41.4 mph N/A Rain Rain
12:00 PM 69.8 °F 66.2 °F 88% 29.86 in 1.2 mi ESE 27.6 mph 41.4 mph 0.01 in Rain Rain
12:17 PM 69.8 °F 66.2 °F 88% 29.85 in 1.0 mi ESE 36.8 mph 42.6 mph 0.09 in Rain Heavy Rain
12:35 PM 69.8 °F 66.2 °F 88% 29.85 in 1.5 mi ESE 28.8 mph 41.4 mph 0.14 in Rain Rain
12:48 PM 69.8 °F 66.2 °F 88% 29.84 in 2.0 mi ESE 29.9 mph 38.0 mph 0.15 in Rain Light Rain
12:56 PM 70.0 °F 68.0 °F 93% 30.75 in 1.8 mi SE 29.9 mph 40.3 mph 0.16 in Rain Light Rain
1:12 PM 69.8 °F 68.0 °F 94% 29.84 in 1.2 mi SE 27.6 mph 38.0 mph 0.06 in Rain Rain
1:17 PM 69.8 °F 68.0 °F 94% 29.82 in 1.0 mi SE 32.2 mph 38.0 mph 0.09 in Rain Rain
1:22 PM 69.8 °F 68.0 °F 94% 29.82 in 0.8 mi ESE 29.9 mph 41.4 mph 0.12 in Rain Rain
1:56 PM 70.0 °F 70.0 °F 100% 30.70 in 0.8 mi SE 28.8 mph 39.1 mph 0.37 in Rain Rain
2:08 PM 69.8 °F 69.8 °F 100% 29.81 in 1.0 mi SSE 34.5 mph 43.7 mph 0.02 in Rain Rain
2:14 PM 69.8 °F 69.8 °F 100% 29.80 in 0.5 mi SSE 31.1 mph 43.7 mph 0.06 in Fog , Rain Heavy Rain
2:20 PM 69.8 °F 69.8 °F 100% 29.80 in 0.8 mi SSE 29.9 mph 41.4 mph 0.09 in Rain Rain
2:32 PM 69.8 °F 69.8 °F 100% 29.79 in 0.5 mi SSE 29.9 mph 42.6 mph 0.22 in Fog , Rain Rain
2:36 PM 69.8 °F 69.8 °F 100% 29.78 in 1.0 mi SSE 34.5 mph 39.1 mph 0.22 in Rain Light Rain
2:46 PM 69.8 °F 69.8 °F 100% 29.77 in 1.5 mi SSE 33.4 mph 43.7 mph 0.24 in Rain Light Rain
2:56 PM 71.6 °F 69.8 °F 94% 29.77 in 1.2 mi SSE 31.1 mph 41.4 mph N/A Rain Rain
3:06 PM 69.8 °F 68.0 °F 94% 29.76 in 1.2 mi SSE 34.5 mph 43.7 mph 0.02 in Rain Light Rain
3:24 PM 69.8 °F 66.2 °F 88% 29.76 in 1.8 mi SSE 34.5 mph 40.3 mph 0.06 in Rain Light Rain
3:45 PM 71.6 °F 68.0 °F 88% 29.73 in 2.0 mi SSE 28.8 mph 36.8 mph 0.08 in Rain Light Rain
3:56 PM 70.0 °F 66.9 °F 90% 30.64 in 1.0 mi SSE 20.7 mph 38.0 mph 0.12 in Rain Rain
4:06 PM 71.6 °F 68.0 °F 88% 29.74 in 1.2 mi SSE 24.2 mph 38.0 mph 0.02 in Rain Light Rain
4:14 PM 71.6 °F 68.0 °F 88% 29.73 in 1.2 mi SSE 27.6 mph 35.7 mph 0.05 in Rain Rain
4:19 PM 71.6 °F 68.0 °F 88% 29.73 in 0.8 mi SSE 24.2 mph 36.8 mph 0.09 in Rain Rain
4:43 PM 71.6 °F 69.8 °F 94% 29.73 in 1.0 mi SSE 24.2 mph 31.1 mph 0.18 in Rain Light Rain
4:48 PM 71.6 °F 69.8 °F 94% 29.74 in 0.8 mi SSE 29.9 mph 38.0 mph 0.21 in Rain Rain
4:56 PM 70.0 °F 68.0 °F 93% 30.65 in 0.5 mi SSE 27.6 mph 38.0 mph 0.32 in Fog , Rain Heavy Rain
5:19 PM 69.8 °F 69.8 °F 100% 29.75 in - South 26.5 mph 33.4 mph 0.17 in Rain Rain
5:23 PM 69.8 °F 68.0 °F 94% 29.75 in 1.0 mi South 23.0 mph 33.4 mph 0.18 in Rain Heavy Rain
5:29 PM 69.8 °F 68.0 °F 94% 29.75 in 1.2 mi SSW 19.6 mph 31.1 mph 0.19 in Rain Light Rain
5:41 PM 69.8 °F 68.0 °F 94% 29.75 in 1.2 mi SSW 20.7 mph - 0.22 in Rain Light Rain
5:48 PM 69.8 °F 69.8 °F 100% 29.74 in 1.5 mi SSW 27.6 mph 35.7 mph 0.23 in Rain Light Rain
5:56 PM 69.8 °F 69.8 °F 100% 29.74 in 1.8 mi SSW 33.4 mph 38.0 mph N/A Rain Light Rain
6:04 PM 69.8 °F 68.0 °F 94% 29.74 in - SW 39.1 mph 49.5 mph 0.00 in Rain Light Rain
6:18 PM 69.8 °F 68.0 °F 94% 29.74 in 2.0 mi SW 34.5 mph 51.8 mph 0.00 in Rain Light Rain
6:56 PM 70.0 °F 68.9 °F 96% 30.65 in 2.0 mi SW 35.7 mph 43.7 mph 0.04 in Rain Rain
7:12 PM 68.0 °F 66.2 °F 94% 29.76 in 2.0 mi SW 29.9 mph 40.3 mph 0.00 in Rain Rain
7:19 PM 68.0 °F 66.2 °F 94% 29.76 in 2.0 mi SW 28.8 mph 40.3 mph 0.01 in Rain Rain
7:56 PM 68.9 °F 68.0 °F 97% 30.66 in 2.0 mi SW 25.3 mph 32.2 mph 0.06 in Rain Light Rain
8:49 PM 69.8 °F 69.8 °F 100% 29.75 in 2.0 mi SW 26.5 mph 32.2 mph 0.07 in Rain Light Rain
8:56 PM 69.8 °F 69.8 °F 100% 29.73 in 2.0 mi SW 26.5 mph 33.4 mph N/A Rain Light Rain
9:14 PM 69.8 °F 68.0 °F 94% 29.74 in 2.0 mi SW 25.3 mph 35.7 mph 0.00 in Rain Light Rain
9:56 PM 70.0 °F 68.0 °F 93% 30.63 in 2.0 mi SW 21.9 mph - 0.00 in   Partly Cloudy
10:56 PM 72.9 °F 70.9 °F 93% 30.61 in 2.0 mi SSW 17.3 mph - N/A   Scattered Clouds
11:05 PM 73.4 °F 71.6 °F 94% 29.70 in 1.2 mi SSW 16.1 mph - N/A   Mostly Cloudy
11:16 PM 73.4 °F 71.6 °F 94% 29.70 in 1.2 mi SSW 17.3 mph - N/A   Mostly Cloudy
11:24 PM 73.4 °F 71.6 °F 94% 29.70 in 1.2 mi SW 17.3 mph - N/A   Clear
11:56 PM 73.9 °F 68.9 °F 84% 30.58 in 1.5 mi SSW 19.6 mph - N/A   Haze